User: anonymous   Login
Location: Fort Wayne
(41.1310°N, 85.1290°W)
Time: 03:36:10
(UTC-05:00)
Language:

Oscar 19 - Orbit

View from above orbital plane
View from above orbital plane
View from above satellite
View from above satellite

Ground track
Ground track

The orbit data is extracted from the following two-line orbital elements,

1 20442U 90005G   14332.06845119  .00000289  00000-0  12225-3 0  1157
2 20442 098.4937 266.5869 0012180 029.4136 330.7731 14.32635508298148
Epoch (UTC): 28 November 2014 01:38:34
Eccentricity: 0.0012180
inclination: 98.4937°
perigee height: 774 km
apogee height: 791 km
right ascension of ascending node: 266.5869°
argument of perigee: 29.4136°
revolutions per day: 14.32635508
mean anomaly at epoch: 330.7731°
orbit number at epoch: 29814

The dashed part of the orbit path shows where the satellite is in the earth's shadow,  

DLR